Simultaneous Nadir Overpasses (SNOs) Predictions

Prediction of SNOs between GOES-14 and AQUA Satellite Orbit:

Table of predicted SNOs for the next 14.0 days since TLE Epoch: 11/29/2019
Index Date Time (GOES-14) GOES-14 Lat,Lon AQUA Lat,Lon Distance(km) Time Diff (sec)
1 12/01/2019 08:35:31 0.04,-104.27 0.15,-104.68 47.59 80
2 12/03/2019 08:20:39 0.04,-104.26 -0.47,-101.72 288.92 80
3 12/03/2019 20:42:02 -0.02,-104.05 -0.60,-106.91 325.01 80
4 12/05/2019 20:32:30 -0.02,-104.05 0.03,-103.95 12.48 80
5 12/07/2019 20:20:17 -0.02,-104.06 0.60,-100.98 349.44 80
6 12/08/2019 08:41:34 0.01,-104.29 0.43,-106.15 212.30 80
7 12/10/2019 08:26:42 0.02,-104.29 -0.21,-103.19 124.56 80
8 12/10/2019 20:48:05 -0.00,-104.05 -0.92,-108.38 491.99 80
9 12/12/2019 08:14:30 0.02,-104.29 -0.85,-100.24 461.12 80
10 12/12/2019 20:35:53 -0.01,-104.05 -0.28,-105.42 155.18 80




NCC Satellite Simultaneous Nadir Overpasses (SNOs) Prediction Service
